Defiance, OH

4:18 PM EST on December 09, 2019 (GMT -0500)
Defiance Memorial

Weather History for KDFI - November, 2019

Change the Weather History Date:

Tuesday, November 19, 2019

  Actual Average Record
Temperature  
Mean Temperature 40 °F -  
Max Temperature 44 °F 49 °F 69 °F (1941)
Min Temperature 35 °F 31 °F 13 °F (1959)
Degree Days  
Heating Degree Days 26    
Moisture  
Dew Point 34 °F    
Average Humidity 79    
Maximum Humidity 93    
Minimum Humidity 60    
Precipitation  
Precipitation 0.00 in - - ()
Sea Level Pressure  
Sea Level Pressure 29.83 in    
Wind  
Wind Speed 3 mph ()    
Max Wind Speed 8 mph    
Max Gust Speed -    
Visibility 6.9 miles    
Events      
Averages and records for this station are not official NWS values.
T = Trace of Precipitation, MM = Missing Value Source: Averaged Metar Reports

Daily Weather History Graph

Daily Weather History Graph

Search for Another Location

Airport or City:

Astronomy

Nov. 19, 2019 Rise Set
Actual Time 7:30 AM EST 5:15 PM EST
Civil Twilight 7:00 AM EST 5:45 PM EST
Nautical Twilight 6:26 AM EST 6:18 PM EST
Astronomical Twilight 5:54 AM EST 6:51 PM EST
Moon No Moon Rise 1:40 PM EST (11/19)
Length of Visible Light 10h 44m
Length of Day
9h 44m
Waning Gibbous, 52% of the Moon is Illuminated
Nov 19
Waning Gibbous
Nov 19
Last Quarter
Nov 26
New
Dec 4
First Quarter
Dec 12
Full

Hourly Weather History & Observations

Time (EST) Temp. Windchill Dew Point Humidity Pressure Visibility Wind Dir Wind Speed Gust Speed Precip Events Conditions
12:23 AM 41.0 °F 38.0 °F 37.0 °F 86% 29.76 in 4.0 mi WSW 4.6 mph - N/A   Overcast
12:53 AM 39.9 °F 36.7 °F 37.0 °F 89% 29.77 in 4.0 mi SW 4.6 mph - N/A   Overcast
1:53 AM 39.9 °F 37.8 °F 36.0 °F 86% 29.77 in 5.0 mi WSW 3.5 mph - N/A   Overcast
2:10 AM 39.9 °F 36.7 °F 37.0 °F 89% 29.76 in 5.0 mi WSW 4.6 mph - N/A   Overcast
2:51 AM 39.2 °F 37.0 °F 37.4 °F 93% 29.77 in 6.0 mi Variable 3.5 mph - N/A   Overcast
2:53 AM 39.9 °F 36.7 °F 37.0 °F 89% 29.78 in 6.0 mi WSW 4.6 mph - N/A   Overcast
3:24 AM 39.9 °F 37.8 °F 36.0 °F 86% 29.77 in 6.0 mi SW 3.5 mph - N/A   Overcast
3:53 AM 39.0 °F 36.8 °F 36.0 °F 89% 29.78 in 7.0 mi Variable 3.5 mph - N/A   Overcast
4:53 AM 39.0 °F 35.7 °F 34.0 °F 82% 29.78 in 5.0 mi WSW 4.6 mph - N/A   Haze
5:36 AM 39.0 °F 36.8 °F 35.1 °F 86% 29.77 in 4.0 mi WSW 3.5 mph - N/A   Overcast
5:53 AM 39.0 °F 35.7 °F 35.1 °F 86% 29.78 in 4.0 mi West 4.6 mph - N/A   Overcast
6:07 AM 39.0 °F 35.7 °F 35.1 °F 86% 29.77 in 4.0 mi WSW 4.6 mph - N/A   Overcast
6:19 AM 39.0 °F 35.7 °F 35.1 °F 86% 29.77 in 4.0 mi WSW 4.6 mph - N/A   Overcast
6:35 AM 39.0 °F - 35.1 °F 86% 29.77 in 4.0 mi Calm Calm - N/A   Overcast
6:53 AM 39.0 °F - 35.1 °F 86% 29.79 in 4.0 mi Calm Calm - N/A   Overcast
7:53 AM 39.0 °F - 35.1 °F 86% 29.81 in 4.0 mi Calm Calm - N/A   Overcast
8:21 AM 39.0 °F 36.8 °F 35.1 °F 86% 29.80 in 3.0 mi SW 3.5 mph - N/A   Overcast
8:53 AM 39.9 °F - 35.1 °F 83% 29.82 in 3.0 mi Calm Calm - N/A   Haze
9:50 AM 39.2 °F 37.0 °F 35.6 °F 87% 29.82 in 4.0 mi SW 3.5 mph - N/A   Haze
9:53 AM 41.0 °F 39.0 °F 35.1 °F 79% 29.83 in 5.0 mi Variable 3.5 mph - N/A   Haze
10:04 AM 41.0 °F 38.0 °F 33.1 °F 73% 29.82 in 6.0 mi SW 4.6 mph - N/A   Haze
10:53 AM 42.1 °F 38.4 °F 33.1 °F 70% 29.83 in 9.0 mi SW 5.8 mph - N/A   Overcast
11:53 AM 44.1 °F 42.5 °F 33.1 °F 65% 29.83 in 10.0 mi Variable 3.5 mph - N/A   Overcast
12:15 PM 43.0 °F 38.8 °F 32.0 °F 65% 29.82 in 10.0 mi South 6.9 mph - N/A   Overcast
12:30 PM 42.1 °F 38.4 °F 32.0 °F 67% 29.82 in 10.0 mi SSW 5.8 mph - N/A   Overcast
12:53 PM 43.0 °F 40.3 °F 32.0 °F 65% 29.83 in 10.0 mi WSW 4.6 mph - N/A   Overcast
1:02 PM 43.0 °F 38.2 °F 32.0 °F 65% 29.82 in 10.0 mi SSW 8.1 mph - N/A   Overcast
1:53 PM 43.0 °F 40.3 °F 30.9 °F 62% 29.84 in 10.0 mi WSW 4.6 mph - N/A   Overcast
2:53 PM 43.0 °F - 30.0 °F 60% 29.84 in 10.0 mi Calm Calm - N/A   Overcast
3:53 PM 43.0 °F 41.3 °F 30.9 °F 62% 29.86 in 10.0 mi WNW 3.5 mph - N/A   Mostly Cloudy
4:53 PM 43.0 °F - 30.9 °F 62% 29.88 in 10.0 mi Calm Calm - N/A   Overcast
5:53 PM 39.0 °F - 30.0 °F 70% 29.90 in 10.0 mi Calm Calm - N/A   Clear
6:53 PM 37.0 °F - 30.0 °F 76% 29.92 in 10.0 mi Calm Calm - N/A   Partly Cloudy
7:53 PM 35.1 °F - 30.0 °F 82% 29.94 in 10.0 mi Calm Calm - N/A   Overcast
8:53 PM 36.0 °F - 30.9 °F 82% 29.96 in 9.0 mi Calm Calm - N/A   Overcast
9:53 PM 36.0 °F - 30.9 °F 82% 29.98 in 10.0 mi Calm Calm - N/A   Overcast
10:53 PM 36.0 °F - 32.0 °F 86% 29.98 in 10.0 mi Calm Calm - N/A   Overcast
11:53 PM 37.0 °F - 30.9 °F 79% 30.00 in 9.0 mi Calm Calm - N/A   Overcast